Погода в Каракокше

Россия / Республика Алтай     51°45′59″N   86°41′50″E
темп.,
°C
ветер,
м/с
пор.,
м/с
влажн.,
%
обл.,
%
осадки,
мм/ч
давл.,
гПа
погр.,
м
8 марта, пн
пн801:00−6юв1192100 0.1 102421
04:00−7юв118899 0.0 102221
07:00−7ююв128290 0.0 102222
10:00−1вюв11806 0.0 101883
13:00+3всв12966 0.0 1014183
16:00+3св119870 0.0 1011107
19:00+1ююв129685 0.0 101324
22:000юз0185100 0.0 101522
9 марта, вт
вт901:00−1ююз1183100 0.0 101721
04:00−1юз277399 0.0 1020175
07:00−4ссз359799 0.7 1026332
10:00−7ссв2292100 0.7 1027321
13:00−4св228499 0.8 1026489
16:00−3св228796 0.1 1025421
19:00−5всв119496 0.1 102644
22:00−8юв119589 0.0 102721
10 марта, ср
ср1001:00−8ююв128675 0.0 102622
04:00−8ююв11810 0.0 102524
07:00−8ююв11803 0.0 102523
10:00−2в11761 0.0 1022105
13:00+1св12867 0.0 1019242
16:00+2св119210 0.0 1016218
19:00−1вюв119642 0.0 101524
22:00−2ю237683 0.0 101635
11 марта, чт
чт1101:00−1ююв337191 0.0 101449
04:00−1ююв237095 0.0 101337
07:00−1ю227097 0.0 101322
10:000св1181100 0.0 1013109
13:00+1с2387100 0.2 1013496
16:00−3ссз2495100 3.5 1015386
19:00−5в1197100 6.9 1019110
22:00−7св1198100 1.4 102321
12 марта, пт
пт1201:00−8ююв119193 1.4 102422
04:00−6ююв2281100 0.0 102333
07:00−5ю3373100 0.0 102155
10:00−1с1178100 0.0 101859
13:00+3зюз21473100 0.0 10162128
16:00−3с3589100 0.1 1015547
19:00−8сз2396100 1.1 1016256
22:00−9с1395100 1.2 1019376